Big Rapids, MI

5:26 AM EST on February 25, 2017 (GMT -0500)
Roben-Hood

Weather History for KRQB - September, 2012

Change the Weather History Date:

Wednesday, September 12, 2012

  Actual Average Record
Temperature  
Mean Temperature 70 °F -  
Max Temperature 85 °F 72 °F 87 °F (1998)
Min Temperature 55 °F 49 °F 36 °F (1985)
Cooling Degree Days 5    
Growing Degree Days 20 (Base 50)    
Moisture  
Dew Point 53 °F    
Average Humidity 60    
Maximum Humidity 89    
Minimum Humidity 29    
Precipitation  
Precipitation 0.00 in - - ()
Sea Level Pressure  
Sea Level Pressure 30.12 in    
Wind  
Wind Speed 7 mph (SSW)    
Max Wind Speed 16 mph    
Max Gust Speed 24 mph    
Visibility 10 miles    
Events      
Averages and records for this station are not official NWS values.
T = Trace of Precipitation, MM = Missing Value Source: NWS Daily Summary

Daily Weather History Graph

Daily Weather History Graph

Search for Another Location

Airport or City:

Trip Planner

Search our weather history database for the weather conditions in past years. The results will help you decide how hot, cold, wet, or windy it might be!

Date:

Astronomy

Sep. 12, 2012 Rise Set
Actual Time 7:18 AM EDT 7:56 PM EDT
Civil Twilight 6:49 AM EDT 8:25 PM EDT
Nautical Twilight 6:15 AM EDT 8:59 PM EDT
Astronomical Twilight 5:39 AM EDT 9:35 PM EDT
Moon 3:29 AM EDT (9/12) 5:48 PM EDT (9/12)
Length of Visible Light 13h 36m
Length of Day
12h 38m
Waning Crescent, 14% of the Moon is Illuminated
Sep 12
Waning Crescent
Sep 15
New
Sep 22
First Quarter
Sep 29
Full
Oct 8
Last Quarter

Hourly Weather History & Observations

Time (EDT) Temp. Heat Index Dew Point Humidity Pressure Visibility Wind Dir Wind Speed Gust Speed Precip Events Conditions
12:35 AM 58.1 °F - 54.1 °F 87% 30.10 in 10.0 mi South 3.5 mph - N/A   Clear
12:55 AM 61.3 °F - 52.2 °F 72% 30.10 in 10.0 mi SSW 3.5 mph - N/A   Clear
1:14 AM 63.5 °F - 52.0 °F 66% 30.10 in 10.0 mi SSW 8.1 mph - N/A   Clear
1:35 AM 63.5 °F - 51.8 °F 66% 30.10 in 10.0 mi SSW 10.4 mph - N/A   Clear
1:55 AM 63.7 °F - 51.3 °F 64% 30.10 in 10.0 mi SSW 6.9 mph - N/A   Clear
2:14 AM 63.5 °F - 50.9 °F 63% 30.10 in 10.0 mi SSW 5.8 mph - N/A   Clear
2:35 AM 63.3 °F - 50.7 °F 63% 30.11 in 10.0 mi South 4.6 mph - N/A   Clear
2:55 AM 63.3 °F - 50.9 °F 64% 30.11 in 10.0 mi South 5.8 mph - N/A   Clear
3:14 AM 63.5 °F - 51.1 °F 64% 30.11 in 10.0 mi South 3.5 mph - N/A   Clear
3:35 AM 62.2 °F - 51.1 °F 67% 30.11 in 10.0 mi South 3.5 mph - N/A   Clear
3:55 AM 62.8 °F - 51.3 °F 66% 30.11 in 10.0 mi South 5.8 mph - N/A   Clear
4:14 AM 62.2 °F - 51.1 °F 67% 30.11 in 10.0 mi South 4.6 mph - N/A   Clear
4:35 AM 61.5 °F - 51.3 °F 69% 30.11 in 10.0 mi South 4.6 mph - N/A   Clear
4:55 AM 60.1 °F - 51.3 °F 73% 30.12 in 10.0 mi South 8.1 mph - N/A   Clear
5:15 AM 59.2 °F - 51.4 °F 75% 30.12 in 10.0 mi South 5.8 mph - N/A   Clear
5:35 AM 58.6 °F - 51.3 °F 76% 30.12 in 10.0 mi South 9.2 mph - N/A   Clear
5:55 AM 58.1 °F - 51.3 °F 78% 30.12 in 10.0 mi Calm Calm - N/A   Clear
6:15 AM 56.7 °F - 51.3 °F 82% 30.12 in 10.0 mi SSW 10.4 mph - N/A   Clear
6:35 AM 55.4 °F - 51.6 °F 87% 30.12 in 10.0 mi SSW 9.2 mph - N/A   Clear
6:54 AM 56.5 °F - 52.7 °F 87% 30.13 in 10.0 mi South 9.2 mph - N/A   Clear
7:15 AM 55.6 °F - 52.5 °F 89% 30.13 in 10.0 mi South 9.2 mph - N/A   Clear
7:35 AM 55.2 °F - 52.0 °F 89% 30.14 in 10.0 mi SSW 11.5 mph - N/A   Clear
7:54 AM 56.1 °F - 52.5 °F 88% 30.14 in 10.0 mi SSW 10.4 mph - N/A   Clear
8:15 AM 60.1 °F - 55.0 °F 83% 30.14 in 10.0 mi SSW 12.7 mph - N/A   Clear
8:35 AM 62.4 °F - 54.5 °F 75% 30.14 in 10.0 mi South 11.5 mph - N/A   Clear
8:54 AM 64.4 °F - 55.0 °F 72% 30.14 in 10.0 mi South 8.1 mph - N/A   Clear
9:15 AM 66.4 °F - 56.1 °F 69% 30.14 in 10.0 mi SSE 4.6 mph - N/A   Clear
9:35 AM 68.9 °F - 57.2 °F 66% 30.15 in 10.0 mi South 8.1 mph - N/A   Clear
9:54 AM 71.1 °F - 57.6 °F 62% 30.15 in 10.0 mi SSW 9.2 mph 20.7 mph N/A   Clear
10:15 AM 72.3 °F - 57.7 °F 60% 30.15 in 10.0 mi SW 12.7 mph 17.3 mph N/A   Clear
10:35 AM 73.4 °F - 57.7 °F 58% 30.14 in 10.0 mi WSW 10.4 mph 19.6 mph N/A   Clear
10:55 AM 74.8 °F - 57.6 °F 55% 30.14 in 10.0 mi SW 12.7 mph 19.6 mph N/A   Clear
11:15 AM 75.9 °F - 57.9 °F 54% 30.14 in 10.0 mi SSW 15.0 mph 21.9 mph N/A   Clear
11:35 AM 78.3 °F - 58.1 °F 50% 30.14 in 10.0 mi SW 11.5 mph 19.6 mph N/A   Clear
11:55 AM 79.0 °F - 57.6 °F 48% 30.13 in 10.0 mi WSW 6.9 mph 18.4 mph N/A   Clear
12:15 PM 79.5 °F - 57.4 °F 47% 30.13 in 10.0 mi SW 10.4 mph 20.7 mph N/A   Clear
12:35 PM 79.2 °F - 58.1 °F 48% 30.13 in 10.0 mi SSW 11.5 mph 23.0 mph N/A   Clear
12:55 PM 80.1 °F 80.7 °F 58.5 °F 48% 30.13 in 10.0 mi SW 11.5 mph 23.0 mph N/A   Clear
1:15 PM 82.2 °F 82.1 °F 58.1 °F 44% 30.12 in 10.0 mi SSW 13.8 mph 23.0 mph N/A   Clear
1:35 PM 82.6 °F 82.2 °F 57.4 °F 42% 30.12 in 10.0 mi SW 12.7 mph 19.6 mph N/A   Clear
1:55 PM 83.7 °F 82.8 °F 55.9 °F 39% 30.12 in 10.0 mi SW 11.5 mph 21.9 mph N/A   Clear
2:15 PM 83.8 °F 83.0 °F 56.3 °F 39% 30.12 in 10.0 mi SW 12.7 mph - N/A   Clear
2:35 PM 84.6 °F 83.5 °F 56.3 °F 38% 30.11 in 10.0 mi SW 10.4 mph 17.3 mph N/A   Clear
2:55 PM 85.8 °F 84.2 °F 54.7 °F 34% 30.11 in 10.0 mi WSW 10.4 mph 21.9 mph N/A   Clear
3:15 PM 85.1 °F - 52.5 °F 32% 30.10 in 10.0 mi SSW 15.0 mph 20.7 mph N/A   Clear
3:34 PM 85.1 °F 83.5 °F 53.4 °F 34% 30.10 in 10.0 mi SW 12.7 mph 19.6 mph N/A   Clear
3:55 PM 84.9 °F - 51.1 °F 31% 30.10 in 10.0 mi SSW 11.5 mph 20.7 mph N/A   Clear
4:15 PM 84.2 °F - 52.0 °F 33% 30.09 in 10.0 mi SW 12.7 mph 23.0 mph N/A   Clear
4:35 PM 85.6 °F - 50.9 °F 30% 30.09 in 10.0 mi SW 11.5 mph 18.4 mph N/A   Clear
4:55 PM 85.5 °F - 50.5 °F 30% 30.09 in 10.0 mi SSW 16.1 mph 24.2 mph N/A   Clear
5:15 PM 84.2 °F - 49.5 °F 30% 30.10 in 10.0 mi SSW 13.8 mph 21.9 mph N/A   Clear
5:55 PM 82.9 °F - 48.0 °F 29% 30.11 in 10.0 mi SSW 10.4 mph 20.7 mph N/A   Clear
6:15 PM 82.0 °F - 48.6 °F 31% 30.11 in 10.0 mi SW 6.9 mph - N/A   Clear
6:34 PM 81.9 °F - 46.9 °F 29% 30.12 in 10.0 mi SW 8.1 mph - N/A   Clear
6:55 PM 79.0 °F - 47.3 °F 33% 30.12 in 10.0 mi SW 9.2 mph - N/A   Clear
7:14 PM 77.2 °F - 47.7 °F 35% 30.13 in 10.0 mi WSW 6.9 mph - N/A   Clear
7:35 PM 75.6 °F - 48.2 °F 38% 30.13 in 10.0 mi Calm Calm - N/A   Clear
7:55 PM 70.0 °F - 52.9 °F 55% 30.13 in 10.0 mi South 3.5 mph - N/A   Clear
8:35 PM 65.5 °F - 53.4 °F 65% 30.13 in 10.0 mi Calm Calm - N/A   Clear
8:55 PM 64.2 °F - 52.0 °F 64% 30.13 in 10.0 mi Calm Calm - N/A   Clear
9:14 PM 62.2 °F - 53.1 °F 72% 30.14 in 10.0 mi Calm Calm - N/A   Clear
9:35 PM 63.0 °F - 52.0 °F 67% 30.14 in 10.0 mi Calm Calm - N/A   Clear
9:55 PM 60.6 °F - 52.9 °F 76% 30.15 in 10.0 mi Calm Calm - N/A   Clear
10:14 PM 60.3 °F - 51.4 °F 73% 30.15 in 10.0 mi Calm Calm - N/A   Clear
10:35 PM 60.3 °F - 51.8 °F 74% 30.15 in 10.0 mi Calm Calm - N/A   Clear
10:55 PM 58.3 °F - 52.0 °F 80% 30.15 in 10.0 mi SSW 9.2 mph - N/A   Clear
11:14 PM 58.5 °F - 52.2 °F 80% 30.15 in 10.0 mi Calm Calm - N/A   Clear
11:35 PM 58.5 °F - 52.0 °F 79% 30.15 in 10.0 mi Calm Calm - N/A   Clear
11:55 PM 57.6 °F - 50.5 °F 77% 30.14 in 10.0 mi Calm Calm - N/A   Clear